Weather History for Houghton, MI

Change the Weather History Date:

Saturday, January 12, 2013

  Actual Average Record
Temperature  
Mean Temperature 30 °F -  
Max Temperature 42 °F 20 °F 42 °F (2013)
Min Temperature 19 °F 8 °F -13 °F (1977)
Degree Days  
Heating Degree Days 34    
Moisture  
Dew Point 27 °F    
Average Humidity 87    
Maximum Humidity 100    
Minimum Humidity 73    
Precipitation  
Precipitation 0.00 in - - ()
Sea Level Pressure  
Sea Level Pressure 29.61 in    
Wind  
Wind Speed 11 mph (SW)    
Max Wind Speed 31 mph    
Max Gust Speed 40 mph    
Visibility 7 miles    
Events Fog , Rain , Snow    
Averages and records for this station are not official NWS values.
T = Trace of Precipitation, MM = Missing Value Source: NWS Daily Summary

Daily Weather History Graph

Daily Weather History Graph

Search for Another Location

Airport:

Trip Planner

Search our weather history database for the weather conditions in past years. The results will help you decide how hot, cold, wet, or windy it might be!

Date:

Astronomy

Jan. 12, 2013 Rise Set
Actual Time 8:37 AM EST 5:27 PM EST
Civil Twilight 8:02 AM EST 6:02 PM EST
Nautical Twilight 7:24 AM EST 6:40 PM EST
Astronomical Twilight 6:48 AM EST 7:17 PM EST
Moon 8:49 AM EST (1/12) 7:04 PM EST (1/12)
Length of Visible Light 9h 59m
Length of Day
8h 50m
New Moon, 1% of the Moon is Illuminated
Jan 12
New Moon
Jan 18
First Quarter
Jan 26
Full
Feb 3
Last Quarter
Feb 10
New

Hourly Weather History & Observations

Time (EST) Temp. Windchill Dew Point Humidity Pressure Visibility Wind Dir Wind Speed Gust Speed Precip Events Conditions
12:15 AM 35.6 °F 29.9 °F 35.6 °F 100% 29.44 in 0.2 mi South 6.9 mph - N/A Fog Fog
12:25 AM 37.4 °F 31.4 °F 37.4 °F 100% 29.44 in 3.0 mi South 8.1 mph - N/A   Overcast
12:53 AM 37.9 °F 31.5 °F 37.0 °F 97% 29.46 in 10.0 mi South 9.2 mph - N/A   Overcast
1:53 AM 37.9 °F 33.5 °F 37.9 °F 100% 29.45 in 10.0 mi SSW 5.8 mph - N/A   Overcast
2:40 AM 37.4 °F 32.8 °F 37.4 °F 100% 29.40 in 10.0 mi SE 5.8 mph - N/A   Overcast
2:53 AM 39.2 °F 34.2 °F 37.4 °F 93% 29.41 in 10.0 mi SE 6.9 mph - N/A   Overcast
3:01 AM 39.2 °F 34.2 °F 37.4 °F 93% 29.41 in 10.0 mi SE 6.9 mph - N/A   Overcast
3:53 AM 39.0 °F 32.8 °F 37.9 °F 96% 29.41 in 10.0 mi SE 9.2 mph - N/A   Overcast
4:18 AM 39.2 °F 32.5 °F 37.4 °F 93% 29.37 in 10.0 mi SE 10.4 mph - N/A   Overcast
4:26 AM 39.2 °F 33.6 °F 37.4 °F 93% 29.36 in 10.0 mi SSE 8.1 mph - N/A   Overcast
4:53 AM 39.9 °F 33.9 °F 39.0 °F 97% 29.38 in 9.0 mi SSE 9.2 mph - N/A   Overcast
5:24 AM 39.2 °F 35.0 °F 39.2 °F 100% 29.34 in 8.0 mi SSE 5.8 mph - N/A   Overcast
5:53 AM 41.0 °F 38.0 °F 39.9 °F 96% 29.35 in 7.0 mi SE 4.6 mph - N/A   Overcast
6:53 AM 39.2 °F 37.0 °F 39.2 °F 100% 29.31 in 7.0 mi ESE 3.5 mph - N/A   Overcast
7:14 AM 39.2 °F 37.0 °F 39.2 °F 100% 29.31 in 7.0 mi SSE 3.5 mph - N/A   Overcast
7:28 AM 41.0 °F 39.0 °F 39.2 °F 93% 29.32 in 7.0 mi SSW 3.5 mph - N/A   Overcast
7:38 AM 41.0 °F 38.0 °F 39.2 °F 93% 29.32 in 6.0 mi SW 4.6 mph - 0.00 in Rain Light Rain
7:53 AM 42.1 °F 38.4 °F 39.9 °F 92% 29.36 in 7.0 mi SW 5.8 mph - 0.00 in   Overcast
8:08 AM 42.8 °F 38.0 °F 39.2 °F 87% 29.34 in 8.0 mi SW 8.1 mph - N/A   Overcast
8:53 AM 42.1 °F 33.1 °F 36.0 °F 79% 29.40 in 10.0 mi WSW 20.7 mph 33.4 mph 0.00 in   Overcast
9:53 AM 39.9 °F 31.4 °F 33.1 °F 77% 29.44 in 10.0 mi WSW 16.1 mph 26.5 mph 0.00 in   Overcast
10:53 AM 39.0 °F 30.6 °F 30.9 °F 73% 29.47 in 10.0 mi WSW 15.0 mph 21.9 mph N/A   Overcast
11:53 AM 34.0 °F 22.1 °F 28.0 °F 79% 29.52 in 10.0 mi West 21.9 mph 34.5 mph N/A   Overcast
12:53 PM 30.9 °F 15.9 °F 24.1 °F 76% 29.58 in 10.0 mi West 31.1 mph 39.1 mph N/A   Overcast
1:53 PM 28.9 °F 14.8 °F 23.0 °F 78% 29.62 in 10.0 mi West 24.2 mph 39.1 mph N/A   Overcast
2:53 PM 27.0 °F 12.2 °F 21.0 °F 78% 29.67 in 10.0 mi West 24.2 mph 39.1 mph N/A   Overcast
3:53 PM 26.1 °F 9.6 °F 19.9 °F 78% 29.73 in 10.0 mi West 29.9 mph 40.3 mph N/A   Overcast
4:34 PM 24.8 °F 11.1 °F 19.4 °F 80% 29.71 in 10.0 mi West 18.4 mph 38.0 mph N/A   Overcast
4:53 PM 24.1 °F 11.0 °F 19.0 °F 81% 29.78 in 10.0 mi WSW 16.1 mph 33.4 mph 0.00 in   Overcast
5:25 PM 24.8 °F 10.0 °F 17.6 °F 74% 29.76 in 9.0 mi West 21.9 mph 29.9 mph 0.00 in Snow Light Snow
5:53 PM 23.0 °F 7.2 °F 17.1 °F 78% 29.81 in 8.0 mi West 23.0 mph 28.8 mph 0.00 in Snow Light Snow
6:53 PM 23.0 °F 10.1 °F 16.0 °F 74% 29.85 in 10.0 mi West 15.0 mph - 0.00 in   Overcast
7:19 PM 21.2 °F 6.0 °F 15.8 °F 80% 29.82 in 10.0 mi West 19.6 mph 29.9 mph N/A   Overcast
7:53 PM 21.2 °F 6.4 °F 15.8 °F 80% 29.83 in 10.0 mi West 18.4 mph 24.2 mph N/A   Overcast
8:20 PM 21.2 °F 8.9 °F 14.0 °F 74% 29.83 in 9.0 mi WSW 12.7 mph 25.3 mph 0.00 in Snow Light Snow
8:53 PM 21.0 °F 8.6 °F 15.1 °F 78% 29.87 in 5.0 mi West 12.7 mph 21.9 mph 0.00 in Snow Light Snow
9:02 PM 21.2 °F 6.8 °F 15.8 °F 80% 29.83 in 1.8 mi West 17.3 mph - 0.00 in Snow Light Snow
9:14 PM 19.4 °F 7.2 °F 17.6 °F 93% 29.85 in 1.0 mi West 11.5 mph - 0.00 in Snow Light Snow
9:33 PM 19.4 °F 8.6 °F 17.6 °F 93% 29.85 in 0.8 mi West 9.2 mph - 0.00 in Snow Light Snow
9:53 PM 19.9 °F 7.3 °F 16.0 °F 85% 29.90 in 1.5 mi West 12.7 mph 21.9 mph 0.00 in Snow Light Snow
9:57 PM 19.4 °F 7.2 °F 15.8 °F 86% 29.86 in 2.0 mi West 11.5 mph 21.9 mph 0.00 in Snow Light Snow
10:01 PM 19.4 °F 6.0 °F 15.8 °F 86% 29.86 in 3.0 mi West 13.8 mph - 0.00 in Snow Light Snow
10:07 PM 19.4 °F 5.0 °F 15.8 °F 86% 29.86 in 2.5 mi West 16.1 mph - 0.00 in Snow Light Snow
10:21 PM 19.4 °F 7.2 °F 15.8 °F 86% 29.85 in 4.0 mi West 11.5 mph 23.0 mph 0.00 in Snow Light Snow
10:53 PM 19.9 °F 6.2 °F 14.0 °F 78% 29.92 in 6.0 mi West 15.0 mph 21.9 mph 0.00 in Snow Light Snow
11:39 PM 19.4 °F 6.6 °F 14.0 °F 80% 29.89 in 1.8 mi West 12.7 mph - 0.00 in Snow Light Snow
11:50 PM 19.4 °F 7.2 °F 14.0 °F 80% 29.88 in 3.0 mi West 11.5 mph - 0.00 in Snow Light Snow
11:53 PM 19.4 °F 8.6 °F 14.0 °F 80% 29.87 in 5.0 mi West 9.2 mph - N/A Snow Light Snow